COSMOS 1275 DEB, 12705

Orbit data source: Space-Track

COSMOS 1275 DEB, 12705 is space debris in LEO originally from a launch on Thu, 04 Jun 1981 UTC launched from the Plesetsk Missile And Space Complex (PKMTR). Debris objects in space refer to the collection of defunct objects orbiting the Earth. Examples of debris include non-operational satellites, rocket bodies, and fragments generated from explosions, collisions, or faulty payload assembly.

Loading next visibility...
Identifier
12705, 1981-053AZ
Orbit
LEO
Country
Flag of CISCIS
Related business
Manufacturer
Unknown
Mission
Spacecraft
Bus & Motor
Unknown
Mass
Unknown
Launch date (UTC)
1981-06-04 (44 years ago)
Launch vehicle
Unknown
Launch site
Plesetsk Missile And Space Complex (PKMTR)
Object type
Payload
Rocket body
Debris
Shape & HBR
Unknown shape, 0.3 m
Radar Cross Section
Medium (>0.1 m² and <1 m²)

Expand to show TLE details & history
Last TLE update: 9 hours ago

TLE from 9 hours ago
0 COSMOS 1275 DEB
1 12705U 81053AZ  25302.37659308  .00002257  00000-0  14020-2 0  9990
2 12705  82.8889  46.7141 0028955 158.8906 267.1854 14.04437952241637
Epoch: 2025-10-29T09:02Z
TLE epoch observation values (Epoch: 2025-10-29T09:02:17.642Z)
Latitude
64.87133°
Longitude
-111.46824°
Altitude
890.76 km
Speed
7.412 km/s
True Right ascension
04h 08m 13s
True Declination
64° 44' 29"
Sunlit
Object was in full shadow at epoch
Visualization orbit readout
Latitude
Unknown
Longitude
Unknown
Altitude
Unknown
Speed
Unknown
Apparent Right ascension
Unknown
Apparent Declination
Unknown
Sunlit
N/A
Visualization observer readout
Local Sidereal Time
13:51:17
Azimuth
Unknown
Elevation
Unknown
Doppler factor
Unknown
Orbital elements
Apogee altitude
896.581 km
Perigee altitude
854.575 km
Semi-major axis
7,253.715 km
Eccentricity
0.0029
Inclination
82.8889°
RAAN
46.7141°
Arg. of periapsis
158.8906°
True anomaly
266.85406°
Mean anomaly
267.1854°
Eccentric anomaly
267.01972°
Mean motion
3.5132 °/min
Orbital period
102.47 mins
BSTAR
0.001402
Loading maneuver chart data...
Computing Atmospheric mass density...
Loading historical data...
Loading historical data...
Loading historical data...
Loading historical data...
Loading historical data...
Loading historical data...
Loading historical data...

Documentation

Showing up to 5 results
|